{"data":{"norad_id":54878,"intl_designator":"2022-178A","name":"SHIYAN-10 02 (SY-10 02)","alt_names":[],"object_type":"PAYLOAD","status":"ACTIVE","operator":null,"country":"PRC","launch_date":"2022-12-29","launch_site_code":"XICLF","launch_vehicle":null,"mission":null,"orbit_class":"UNKNOWN","rcs_meters":null,"size_class":null,"mass_kg":null,"dimensions":null,"purposes":[],"wikipedia_slug":null,"has_3d_model":false,"image_url":null,"decayed_at":null,"tle_current":{"epoch":"2026-09-13T21:08:35.767392Z","epoch_age_seconds":737223,"freshness":"AGED","line1":"1 54878U 22178A   26256.88096953  .00000837  00000+0  00000+0 0  9997","line2":"2 54878  64.0134 310.3824 6904856 267.6534  18.6662  2.00653885 18335","mean_motion":2.00653885,"eccentricity":0.6904856,"inclination_deg":64.0134,"raan_deg":310.3824,"arg_perigee_deg":267.6534,"mean_anomaly_deg":18.6662,"bstar":0,"rev_number":1833,"period_min":717.65368510059,"perigee_km":1840.2070524076,"apogee_km":38508.279517101,"semimajor_km":26552.380284755,"source":"CELESTRAK","updated_at":"2026-09-22T09:00:25.263322Z"}}}